2023/07/16 00:00:00, 0.1,22.5
2023/07/16 00:10:00, 0.1,22.4
2023/07/16 00:20:00, 0.1,22.6
2023/07/16 00:30:00, 0.1,21.9
2023/07/16 00:40:00, 0.1,22.0
2023/07/16 00:50:00, 0.1,22.1
2023/07/16 01:00:00, 0.1,22.1
2023/07/16 01:10:00, 0.1,22.1
2023/07/16 01:20:00, 0.1,21.9
2023/07/16 01:30:00, 0.0,21.5
2023/07/16 01:40:00, 0.0,21.7
2023/07/16 01:50:00, 0.2,21.5
2023/07/16 02:00:00, 0.2,21.9
2023/07/16 02:10:00, 0.2,21.3
2023/07/16 02:20:00, 0.2,21.6
2023/07/16 02:30:00, 0.3,21.7
2023/07/16 02:40:00, 0.2,21.9
2023/07/16 02:50:00, 0.1,21.7
2023/07/16 03:00:00, 0.1,21.9
2023/07/16 03:10:00, 0.1,21.9
2023/07/16 03:20:00, 0.1,21.9
2023/07/16 03:30:00, 0.1,21.9
2023/07/16 03:40:00, 0.1,22.9
2023/07/16 03:50:00, 0.1,21.8
2023/07/16 04:00:00, 0.0,21.6
2023/07/16 04:10:00, 0.1,21.9
2023/07/16 04:20:00, 0.1,22.0
2023/07/16 04:30:00, 0.1,21.9
2023/07/16 04:40:00, 0.1,21.7
2023/07/16 04:50:00, 0.1,22.0
2023/07/16 05:00:00, 0.2,21.9
2023/07/16 05:10:00, 0.1,21.9
2023/07/16 05:20:00, 0.1,21.8
2023/07/16 05:30:00, 0.1,21.9
2023/07/16 05:40:00, 0.1,21.9
2023/07/16 05:50:00, 0.1,22.0
2023/07/16 06:00:00, 0.2,22.0
2023/07/16 06:10:00, 0.2,22.0
2023/07/16 06:20:00, 0.2,22.3
2023/07/16 06:30:00, 0.2,22.0
2023/07/16 06:40:00, 0.2,21.7
2023/07/16 06:50:00, 0.1,22.1
2023/07/16 07:00:00, 0.1,22.4
2023/07/16 07:10:00, 0.2,22.7
2023/07/16 07:20:00, 0.2,22.6
2023/07/16 07:30:00, 0.1,22.6
2023/07/16 07:40:00, 0.2,22.6
2023/07/16 07:50:00, 0.2,22.8
2023/07/16 08:00:00, 0.1,23.2
2023/07/16 08:10:00, 0.3,23.3
2023/07/16 08:20:00, 0.2,23.2
2023/07/16 08:30:00, 0.2,23.1
2023/07/16 08:40:00, 0.2,23.8
2023/07/16 08:50:00, 0.2,24.5
2023/07/16 09:00:00, 0.2,25.0
2023/07/16 09:10:00, 0.2,25.4
2023/07/16 09:20:00, 0.2,25.9
2023/07/16 09:30:00, 0.2,26.4
2023/07/16 09:40:00, 0.1,26.5
2023/07/16 09:50:00, 0.2,26.9
2023/07/16 10:00:00, 0.2,27.4
2023/07/16 10:10:00, 0.2,27.5
2023/07/16 10:20:00, 0.2,27.6
2023/07/16 10:30:00, 1.1,27.9
2023/07/16 10:40:00, 1.0,28.3
2023/07/16 10:50:00, 1.0,28.6
2023/07/16 11:00:00, 1.1,28.6
2023/07/16 11:10:00, 1.2,28.9
2023/07/16 11:20:00, 1.0,29.0
2023/07/16 11:30:00, 0.5,28.7
2023/07/16 11:40:00, 0.5,28.1
2023/07/16 11:50:00, 0.5,28.0
2023/07/16 12:00:00, 0.5,28.1
2023/07/16 12:10:00, 0.7,28.5
2023/07/16 12:20:00,---,28.8
2023/07/16 12:30:00, 1.5,29.1
2023/07/16 12:40:00,---,29.2
2023/07/16 12:50:00,---,29.3
2023/07/16 13:00:00, 1.4,30.0
2023/07/16 13:10:00, 1.5,30.4
2023/07/16 13:20:00, 1.4,30.1
2023/07/16 13:30:00, 0.8,29.4
2023/07/16 13:40:00, 0.9,28.8
2023/07/16 13:50:00, 0.5,28.5
2023/07/16 14:00:00, 0.6,28.6
2023/07/16 14:10:00, 0.4,28.4
2023/07/16 14:20:00, 0.4,29.5
2023/07/16 14:30:00, 0.5,29.1
2023/07/16 14:40:00, 0.7,28.8
2023/07/16 14:50:00, 1.0,29.0
2023/07/16 15:00:00, 0.6,29.1
2023/07/16 15:10:00, 0.5,28.8
2023/07/16 15:20:00, 0.6,29.0
2023/07/16 15:30:00, 0.5,27.9
2023/07/16 15:40:00, 0.5,27.7
2023/07/16 15:50:00, 0.3,27.2
2023/07/16 16:00:00, 0.5,27.3
2023/07/16 16:10:00, 0.5,28.5
2023/07/16 16:20:00, 0.4,27.8
2023/07/16 16:30:00, 0.4,27.0
2023/07/16 16:40:00, 0.2,26.9
2023/07/16 16:50:00, 0.4,26.3
2023/07/16 17:00:00, 0.1,26.5
2023/07/16 17:10:00, 0.0,25.3
2023/07/16 17:20:00, 0.1,25.0
2023/07/16 17:30:00, 0.1,24.4
2023/07/16 17:40:00, 0.0,24.2
2023/07/16 17:50:00, 0.1,24.0
2023/07/16 18:00:00, 0.1,23.8
2023/07/16 18:10:00, 0.2,23.4
2023/07/16 18:20:00, 0.2,23.7
2023/07/16 18:30:00, 0.2,23.1
2023/07/16 18:40:00, 0.2,23.6
2023/07/16 18:50:00, 0.3,22.7
2023/07/16 19:00:00, 0.2,22.6
2023/07/16 19:10:00, 0.2,22.8
2023/07/16 19:20:00, 0.2,22.3
2023/07/16 19:30:00, 0.2,22.2
2023/07/16 19:40:00, 0.2,22.1
2023/07/16 19:50:00, 0.3,22.0
2023/07/16 20:00:00, 0.2,21.9
2023/07/16 20:10:00, 0.2,21.8
2023/07/16 20:20:00, 0.1,21.3
2023/07/16 20:30:00, 0.1,21.4
2023/07/16 20:40:00, 0.2,21.2
2023/07/16 20:50:00, 0.2,21.3
2023/07/16 21:00:00, 0.1,21.0
2023/07/16 21:10:00, 0.1,21.1
2023/07/16 21:20:00, 0.1,21.5
2023/07/16 21:30:00, 0.1,21.4
2023/07/16 21:40:00, 0.1,21.4
2023/07/16 21:50:00, 0.2,21.3
2023/07/16 22:00:00, 0.2,21.3
2023/07/16 22:10:00, 0.2,21.4
2023/07/16 22:20:00, 0.2,21.7
2023/07/16 22:30:00, 0.2,21.2
2023/07/16 22:40:00, 0.2,21.6
2023/07/16 22:50:00, 0.2,20.9
2023/07/16 23:00:00, 0.2,20.8
2023/07/16 23:10:00, 0.2,21.0
2023/07/16 23:20:00, 0.2,20.8
2023/07/16 23:30:00, 0.2,20.9
2023/07/16 23:40:00, 0.2,21.0
2023/07/16 23:50:00, 0.2,21.0
